Regional Weather Roundup
Issued by NWS Goodland, KS

Home | Current Version | Previous Version | Graphics & Text | Print | Product List | Glossary On
Versions: 1 2 3 4 5 6 7 8 9 10 11 12 13 14 15 16 17 18 19 20 21 22 23 24 25 26 27 28 29 30 31 32 33 34 35 36 37 38 39 40 41 42 43 44 45 46 47 48 49 50
000
ASUS43 KGLD 051259
RWRGLD

GOODLAND FORECAST AREA HOURLY WEATHER ROUNDUP
NATIONAL WEATHER SERVICE GOODLAND KS
700 AM MDT THU MAY 05 2016

...OFFICIAL OBSERVATIONS...

CITY           SKY/WX    TMP DP  RH WIND       PRES   REMARKS
GOODLAND KS    SUNNY     56  42  59 S13       30.11R
HILL CITY KS   SUNNY     48  43  82 CALM      30.12R
IMPERIAL NEB   SUNNY     50  44  80 SW3       30.11R
MCCOOK NEB     SUNNY     46  43  89 CALM      30.11R
AKRON CO       CLOUDY    54  40  59 SW12      30.11S
BURLINGTON CO  SUNNY     51  40  65 S8        30.13R
LIMON CO       CLOUDY    43  41  93 CALM      30.17R
$$

...UNOFFICIAL OBSERVATIONS...

CITY           SKY/WX    TMP DP  RH WIND       PRES   REMARKS
COLBY KS       SUNNY     48  48 100 SW5       30.13R
LENORA KS        N/A     54  32  43 MISG        N/A
NORTON KS      SUNNY     48  41  76 CALM      30.11R
SHARON SPRINGS   N/A     54  47  76 S9          N/A
KIT CARSON CO    N/A     45  41  85 MISG        N/A
YUMA CO          N/A     51  44  78 SW8         N/A
$$




USA.gov is the U.S. government's official web portal to all federal, state and local government web resources and services.